• In Romania
  • List of Countries
  • For 7 days
  • Water Temperature
  • Satellite Maps
  • Weather Map
  • Weather Widgets
  • user-avatar
    Login

    Hourly Weather Rovinj

    Today, 24 September, Monday

    Time Temperature Precipitation Wind Pressure Humidity
    00:00 +24°C° 0 mm 6 mps 757 mmHg 89%
    01:00 +24°C° 0 mm 7 mps 756 mmHg 89%
    02:00 +24°C° 0.1 mm 7 mps 756 mmHg 89%
    03:00 +23°C° 0.1 mm 7 mps 756 mmHg 88%
    04:00 +23°C° 0.1 mm 6 mps 756 mmHg 88%
    05:00 +23°C° 0.6 mm 5 mps 757 mmHg 89%
    06:00 +23°C° 0.6 mm 4 mps 758 mmHg 89%
    07:00 +24°C° 0.6 mm 3 mps 758 mmHg 90%
    08:00 +20°C° 2.7 mm 7 mps 760 mmHg 88%
    09:00 +17°C° 2.7 mm 11 mps 761 mmHg 87%
    10:00 +13°C° 2.7 mm 15 mps 763 mmHg 85%
    11:00 +13°C° 0.2 mm 14 mps 764 mmHg 82%
    12:00 +13°C° 0.2 mm 14 mps 765 mmHg 79%
    13:00 +12°C° 0.2 mm 13 mps 766 mmHg 75%
    14:00 +13°C° 0 mm 12 mps 766 mmHg 69%
    15:00 +14°C° 0 mm 11 mps 766 mmHg 63%
    16:00 +16°C° 0 mm 10 mps 767 mmHg 56%
    17:00 +14°C° 0 mm 10 mps 767 mmHg 57%
    18:00 +13°C° 0 mm 10 mps 768 mmHg 58%
    19:00 +13°C° 0 mm 10 mps 768 mmHg 58%
    20:00 +13°C° 0 mm 10 mps 769 mmHg 55%
    21:00 +13°C° 0 mm 10 mps 770 mmHg 52%
    22:00 +13°C° 0 mm 10 mps 770 mmHg 50%
    23:00 +13°C° 0 mm 10 mps 771 mmHg 50%

    Tomorrow, 25 September, Tuesday

    Time Temperature Precipitation Wind Pressure Humidity
    00:00 +12°C° 0 mm 10 mps 771 mmHg 50%
    01:00 +12°C° 0 mm 9 mps 771 mmHg 51%
    02:00 +12°C° 0 mm 9 mps 771 mmHg 53%
    03:00 +11°C° 0 mm 9 mps 771 mmHg 55%
    04:00 +11°C° 0 mm 9 mps 771 mmHg 57%
    05:00 +11°C° 0 mm 9 mps 772 mmHg 58%
    06:00 +11°C° 0 mm 8 mps 772 mmHg 59%
    07:00 +11°C° 0 mm 8 mps 772 mmHg 60%
    08:00 +12°C° 0 mm 8 mps 772 mmHg 56%
    09:00 +15°C° 0 mm 8 mps 773 mmHg 52%
    10:00 +16°C° 0 mm 8 mps 773 mmHg 47%
    11:00 +17°C° 0 mm 7 mps 773 mmHg 46%
    12:00 +17°C° 0 mm 7 mps 772 mmHg 45%
    13:00 +18°C° 0 mm 7 mps 772 mmHg 44%
    14:00 +17°C° 0 mm 7 mps 772 mmHg 44%
    15:00 +17°C° 0 mm 7 mps 772 mmHg 44%
    16:00 +17°C° 0 mm 7 mps 772 mmHg 45%
    17:00 +15°C° 0 mm 7 mps 772 mmHg 47%
    18:00 +14°C° 0 mm 7 mps 773 mmHg 48%
    19:00 +12°C° 0 mm 8 mps 773 mmHg 50%
    20:00 +12°C° 0 mm 8 mps 774 mmHg 50%
    21:00 +11°C° 0 mm 8 mps 775 mmHg 50%
    22:00 +11°C° 0 mm 8 mps 775 mmHg 49%
    23:00 +11°C° 0 mm 8 mps 775 mmHg 50%

    Day after tomorrow, 26 September, Wednesday

    Time Temperature Precipitation Wind Pressure Humidity
    00:00 +11°C° 0 mm 8 mps 776 mmHg 50%
    01:00 +10°C° 0 mm 8 mps 776 mmHg 51%
    02:00 +10°C° 0 mm 8 mps 776 mmHg 53%
    03:00 +10°C° 0 mm 7 mps 776 mmHg 56%
    04:00 +9°C° 0 mm 7 mps 776 mmHg 58%
    05:00 +9°C° 0 mm 7 mps 776 mmHg 60%
    06:00 +9°C° 0 mm 6 mps 776 mmHg 61%
    07:00 +9°C° 0 mm 6 mps 776 mmHg 62%
    08:00 +11°C° 0 mm 6 mps 776 mmHg 56%
    09:00 +14°C° 0 mm 5 mps 776 mmHg 49%
    10:00 +16°C° 0 mm 5 mps 776 mmHg 43%
    11:00 +18°C° 0 mm 4 mps 775 mmHg 40%
    12:00 +19°C° 0 mm 3 mps 775 mmHg 37%
    13:00 +21°C° 0 mm 3 mps 775 mmHg 34%
    14:00 +20°C° 0 mm 2 mps 774 mmHg 35%
    15:00 +20°C° 0 mm 2 mps 774 mmHg 36%
    16:00 +20°C° 0 mm 2 mps 773 mmHg 38%
    17:00 +18°C° 0 mm 2 mps 774 mmHg 44%
    18:00 +17°C° 0 mm 2 mps 774 mmHg 50%
    19:00 +15°C° 0 mm 2 mps 774 mmHg 56%
    20:00 +14°C° 0 mm 2 mps 774 mmHg 57%
    21:00 +14°C° 0 mm 2 mps 774 mmHg 59%
    22:00 +14°C° 0 mm 2 mps 774 mmHg 61%
    23:00 +13°C° 0 mm 2 mps 774 mmHg 59%

    27 September, Thursday

    Time Temperature Precipitation Wind Pressure Humidity
    00:00 +13°C° 0 mm 2 mps 774 mmHg 57%
    01:00 +13°C° 0 mm 2 mps 774 mmHg 55%
    02:00 +12°C° 0 mm 3 mps 773 mmHg 54%
    03:00 +12°C° 0 mm 3 mps 773 mmHg 52%
    04:00 +12°C° 0 mm 3 mps 773 mmHg 51%
    05:00 +12°C° 0 mm 3 mps 773 mmHg 50%
    06:00 +13°C° 0 mm 3 mps 772 mmHg 50%
    07:00 +13°C° 0 mm 3 mps 772 mmHg 50%
    08:00 +17°C° 0 mm 3 mps 772 mmHg 44%
    09:00 +20°C° 0 mm 3 mps 772 mmHg 38%
    10:00 +24°C° 0 mm 3 mps 772 mmHg 33%
    11:00 +25°C° 0 mm 3 mps 771 mmHg 31%
    12:00 +26°C° 0 mm 3 mps 771 mmHg 28%
    13:00 +28°C° 0 mm 3 mps 770 mmHg 26%
    14:00 +27°C° 0 mm 3 mps 770 mmHg 30%
    15:00 +27°C° 0 mm 3 mps 769 mmHg 34%
    16:00 +26°C° 0 mm 3 mps 769 mmHg 39%
    17:00 +24°C° 0 mm 3 mps 769 mmHg 43%
    18:00 +21°C° 0 mm 3 mps 769 mmHg 47%
    19:00 +18°C° 0 mm 3 mps 769 mmHg 51%
    20:00 +18°C° 0 mm 3 mps 769 mmHg 49%
    21:00 +17°C° 0 mm 3 mps 768 mmHg 47%
    22:00 +17°C° 0 mm 4 mps 768 mmHg 44%
    23:00 +17°C° 0 mm 4 mps 768 mmHg 44%

    28 September, Friday

    Time Temperature Precipitation Wind Pressure Humidity
    00:00 +15°C° 0 mm 4 mps 767 mmHg 43%
    01:00 +15°C° 0 mm 4 mps 767 mmHg 42%
    02:00 +15°C° 0 mm 4 mps 766 mmHg 43%
    03:00 +15°C° 0 mm 4 mps 766 mmHg 45%
    04:00 +15°C° 0 mm 4 mps 765 mmHg 46%
    05:00 +16°C° 0 mm 3 mps 765 mmHg 48%
    06:00 +17°C° 0 mm 3 mps 765 mmHg 50%
    07:00 +17°C° 0 mm 3 mps 765 mmHg 52%
    08:00 +19°C° 0 mm 3 mps 764 mmHg 48%
    09:00 +22°C° 0 mm 3 mps 764 mmHg 43%
    10:00 +25°C° 0 mm 2 mps 764 mmHg 38%
    11:00 +26°C° 0 mm 2 mps 763 mmHg 36%
    12:00 +28°C° 0 mm 2 mps 763 mmHg 34%
    13:00 +29°C° 0 mm 2 mps 762 mmHg 33%
    14:00 +28°C° 0 mm 2 mps 762 mmHg 36%
    15:00 +27°C° 0 mm 2 mps 761 mmHg 39%
    16:00 +27°C° 0 mm 2 mps 761 mmHg 43%
    17:00 +25°C° 0 mm 1 mps 761 mmHg 49%
    18:00 +22°C° 0 mm 1 mps 761 mmHg 55%
    19:00 +20°C° 0 mm 1 mps 761 mmHg 61%
    20:00 +20°C° 0 mm 1 mps 761 mmHg 61%
    21:00 +18°C° 0 mm 2 mps 761 mmHg 61%
    22:00 +18°C° 0 mm 2 mps 761 mmHg 61%
    23:00 +18°C° 0 mm 2 mps 761 mmHg 60%

    29 September, Saturday

    Time Temperature Precipitation Wind Pressure Humidity
    00:00 +18°C° 0 mm 2 mps 761 mmHg 59%
    01:00 +17°C° 0 mm 2 mps 761 mmHg 58%
    02:00 +17°C° 0 mm 3 mps 761 mmHg 58%
    03:00 +17°C° 0 mm 3 mps 761 mmHg 58%
    04:00 +17°C° 0 mm 4 mps 761 mmHg 57%
    05:00 +17°C° 0 mm 5 mps 761 mmHg 56%
    06:00 +17°C° 0 mm 5 mps 761 mmHg 55%
    07:00 +19°C° 0 mm 6 mps 761 mmHg 55%
    08:00 +20°C° 0 mm 7 mps 762 mmHg 53%
    09:00 +21°C° 0 mm 7 mps 762 mmHg 52%
    10:00 +22°C° 0 mm 8 mps 762 mmHg 51%
    11:00 +23°C° 0 mm 8 mps 762 mmHg 51%
    12:00 +23°C° 0 mm 7 mps 762 mmHg 50%
    13:00 +24°C° 0 mm 7 mps 762 mmHg 50%
    14:00 +23°C° 0 mm 7 mps 762 mmHg 50%
    15:00 +22°C° 0 mm 7 mps 762 mmHg 50%
    16:00 +22°C° 0 mm 8 mps 762 mmHg 50%
    17:00 +20°C° 0 mm 8 mps 763 mmHg 47%
    18:00 +18°C° 0 mm 9 mps 764 mmHg 44%
    19:00 +16°C° 0 mm 10 mps 764 mmHg 42%
    20:00 +16°C° 0 mm 10 mps 765 mmHg 45%
    21:00 +14°C° 0 mm 11 mps 765 mmHg 48%
    22:00 +14°C° 0 mm 11 mps 766 mmHg 51%
    23:00 +14°C° 0 mm 10 mps 766 mmHg 53%
    Show more